Weather History for Lafayette, LA

Change the Weather History Date:

Saturday, May 26, 2012

  Actual Average Record
Temperature  
Mean Temperature 81 °F 79 °F  
Max Temperature 92 °F 88 °F 97 °F (1901)
Min Temperature 69 °F 69 °F 50 °F (1925)
Cooling Degree Days 16 14  
Month to date cooling degree days 316 289  
Year to date cooling degree days 758 543  
Growing Degree Days 30 (Base 50)    
Moisture  
Dew Point 68 °F    
Average Humidity 69    
Maximum Humidity 97    
Minimum Humidity 41    
Precipitation  
Precipitation 0.00 in 0.17 in 1.72 in (1923)
Month to date precipitation 1.72 3.91  
Year to date precipitation 24.05 21.75  
Sea Level Pressure  
Sea Level Pressure 30.05 in    
Wind  
Wind Speed 3 mph (ESE)    
Max Wind Speed 9 mph    
Max Gust Speed 13 mph    
Visibility 8 miles    
Events      
T = Trace of Precipitation, MM = Missing Value Source: NWS Daily Summary

Daily Weather History Graph

Daily Weather History Graph

Search for Another Location

Airport:

Trip Planner

Search our weather history database for the weather conditions in past years. The results will help you decide how hot, cold, wet, or windy it might be!

Date:

Astronomy

May. 26, 2012 Rise Set
Actual Time 6:08 AM CDT 8:01 PM CDT
Civil Twilight 5:41 AM CDT 8:28 PM CDT
Nautical Twilight 5:09 AM CDT 9:01 PM CDT
Astronomical Twilight 4:34 AM CDT 9:35 PM CDT
Moon 11:00 AM CDT (5/26) No Moon Set
Length of Visible Light 14h 47m
Length of Day
13h 53m
Waxing Crescent, 28% of the Moon is Illuminated
May 26
Waxing Crescent
May 28
First Quarter
Jun 4
Full
Jun 11
Last Quarter
Jun 19
New

Hourly Weather History & Observations

Time (CDT) Temp. Heat Index Dew Point Humidity Pressure Visibility Wind Dir Wind Speed Gust Speed Precip Events Conditions
12:53 AM 72.0 °F - 70.0 °F 93% 30.06 in 6.0 mi Calm Calm - N/A   Clear
1:53 AM 70.0 °F - 68.0 °F 93% 30.05 in 4.0 mi Calm Calm - N/A   Clear
2:53 AM 69.1 °F - 66.0 °F 90% 30.04 in 7.0 mi Calm Calm - N/A   Clear
3:53 AM 69.1 °F - 68.0 °F 96% 30.05 in 5.0 mi Calm Calm - N/A   Clear
4:53 AM 70.0 °F - 68.0 °F 93% 30.05 in 6.0 mi Calm Calm - N/A   Clear
5:53 AM 70.0 °F - 68.0 °F 93% 30.05 in 4.0 mi Calm Calm - N/A   Clear
6:53 AM 71.1 °F - 69.1 °F 93% 30.07 in 4.0 mi Calm Calm - N/A   Clear
7:53 AM 73.9 °F - 71.1 °F 91% 30.09 in 5.0 mi Calm Calm - N/A   Clear
8:53 AM 78.1 °F - 72.0 °F 81% 30.10 in 10.0 mi North - - N/A   Clear
9:53 AM 82.0 °F 86.7 °F 72.0 °F 71% 30.10 in 10.0 mi ENE 4.6 mph - N/A   Clear
10:53 AM 84.9 °F 88.2 °F 68.0 °F 57% 30.10 in 10.0 mi Variable 3.5 mph - N/A   Clear
11:53 AM 87.1 °F 88.3 °F 64.0 °F 46% 30.10 in 10.0 mi ESE 5.8 mph - N/A   Clear
12:53 PM 89.1 °F 90.3 °F 64.0 °F 43% 30.09 in 10.0 mi East 4.6 mph - N/A   Clear
1:53 PM 90.0 °F 90.6 °F 63.0 °F 40% 30.07 in 10.0 mi Variable 4.6 mph - N/A   Clear
2:53 PM 91.0 °F 93.0 °F 64.9 °F 42% 30.06 in 10.0 mi ENE 8.1 mph - N/A   Clear
3:53 PM 91.0 °F 92.6 °F 64.0 °F 41% 30.04 in 10.0 mi East 4.6 mph - N/A   Clear
4:53 PM 91.0 °F 92.6 °F 64.0 °F 41% 30.02 in 10.0 mi East 4.6 mph - N/A   Clear
5:53 PM 89.1 °F 91.0 °F 64.9 °F 45% 30.01 in 10.0 mi Variable 4.6 mph - N/A   Clear
6:53 PM 87.1 °F 92.0 °F 70.0 °F 57% 30.00 in 10.0 mi SSE 5.8 mph - N/A   Clear
7:53 PM 84.0 °F 88.4 °F 70.0 °F 63% 30.01 in 10.0 mi South 6.9 mph - N/A   Clear
8:53 PM 82.0 °F 86.7 °F 72.0 °F 71% 30.02 in 10.0 mi South 3.5 mph - N/A   Clear
9:53 PM 80.1 °F 83.8 °F 72.0 °F 76% 30.03 in 10.0 mi South 3.5 mph - N/A   Clear
10:53 PM 79.0 °F - 73.0 °F 82% 30.04 in 10.0 mi Calm Calm - N/A   Clear
11:53 PM 78.1 °F - 73.0 °F 84% 30.02 in 10.0 mi Calm Calm - N/A   Clear